Location: Unspecified
(52.6650°N, 0.0000°E)
Time: 00:28:55
(UTC+00:00)

deb r/b (DELTA) - Visible Passes

Search period start: 04 April 2026 00:00
Search period end: 14 April 2026 00:00
Orbit: 867 x 936 km, 98.9° (Epoch: 26 March)

Date Brightness Start Highest point End Pass type
(mag) Time Alt. Az. Time Alt. Az. Time Alt. Az.
4 Apr ? 02:15:00 10° NNE 02:20:31 49° E 02:22:54 31° SSE visible
4 Apr ? 03:57:00 10° N 04:02:09 37° WNW 04:05:59 17° WSW visible
5 Apr ? 02:18:02 10° NNE 02:23:36 51° E 02:26:08 31° SSE visible
5 Apr ? 04:00:05 10° N 04:05:12 35° WNW 04:09:14 16° WSW visible
6 Apr ? 02:21:03 10° NNE 02:26:41 54° E 02:29:23 30° SSE visible
6 Apr ? 04:03:10 10° N 04:08:14 34° WNW 04:12:28 14° WSW visible
7 Apr ? 00:45:38 10° ENE 00:46:47 11° E 00:47:55 10° E visible
7 Apr ? 02:24:06 10° NNE 02:29:45 57° E 02:32:36 29° SSE visible
7 Apr ? 04:06:16 10° N 04:11:15 32° WNW 04:15:42 13° WSW visible
8 Apr ? 00:48:09 10° ENE 00:49:54 11° E 00:51:39 10° E visible
8 Apr ? 02:27:09 10° NNE 02:32:50 60° ESE 02:35:51 28° S visible
8 Apr ? 04:09:21 10° N 04:14:17 31° WNW 04:18:57 12° WSW visible
9 Apr ? 00:50:52 10° ENE 00:53:02 12° E 00:55:13 10° ESE visible
9 Apr ? 02:30:12 10° NNE 02:35:55 63° ESE 02:39:05 27° S visible
9 Apr ? 04:12:26 10° N 04:17:20 30° WNW 04:22:10 10° WSW visible
10 Apr ? 00:53:38 10° ENE 00:56:09 13° E 00:58:41 10° ESE visible
10 Apr ? 02:33:15 10° NNE 02:38:59 66° ESE 02:42:19 26° S visible
10 Apr ? 04:15:32 10° N 04:20:21 29° WNW 04:25:14 10° WSW visible
11 Apr ? 00:56:28 10° NE 00:59:17 14° E 01:02:06 10° ESE visible
11 Apr ? 02:36:17 10° NNE 02:42:04 70° ESE 02:45:33 25° S visible
11 Apr ? 04:18:37 10° N 04:23:23 28° WNW 04:28:12 10° WSW visible
12 Apr ? 00:59:19 10° NE 01:02:23 14° E 01:05:29 10° ESE visible
12 Apr ? 02:39:20 10° NNE 02:45:08 73° ESE 02:48:47 24° S visible
12 Apr ? 04:21:43 10° N 04:26:25 27° NW 04:31:09 10° WSW visible
13 Apr ? 01:02:13 10° NE 01:05:31 15° E 01:08:50 10° ESE visible
13 Apr ? 02:42:24 10° NNE 02:48:12 76° ESE 02:52:01 23° S visible
13 Apr ? 04:24:50 10° N 04:29:27 26° NW 04:34:06 10° WSW visible
